Regional Weather Roundup
Issued by NWS

Home | Current Version | Previous Version | Graphics & Text | Print | Product List | Glossary On
Versions: 1 2 3 4 5 6 7 8 9 10 11 12 13 14 15 16 17 18 19 20 21 22 23 24 25 26 27 28 29 30 31 32 33 34 35 36 37 38 39 40 41 42 43 44 45 46 47 48 49 50
000
ASUS43 KLMK 230510
RWRKY
KENTUCKY REGIONAL WEATHER ROUNDUP
NATIONAL WEATHER SERVICE LOUISVILLE KY
100 AM EDT TUE MAY 23 2017

NOTE "FAIR" INDICATES FEW OR NO CLOUDS BELOW 12,000 FEET
WITH NO SIGNIFICANT WEATHER AND/OR OBSTRUCTIONS TO VISIBILITY.

KYZ001>023-026-027-061>063-070>075-230600-
WESTERN AND SOUTH CENTRAL KENTUCKY

CITY           SKY/WX    TMP DP  RH WIND       PRES   REMARKS
PADUCAH        PTCLDY    60  51  72 CALM      29.93F
HENDERSON      NOT AVBL
OWENSBORO      CLOUDY    62  53  72 NE3       29.96F
HOPKINSVILLE   CLOUDY    64  54  71 E3        29.94F
BOWLING GREEN  CLOUDY    63  56  78 E5        29.95F
GLASGOW        CLOUDY    61  54  78 CALM      29.95F
$$

KYZ024-025-028>034-038-045-046-053-230600-
NORTH CENTRAL KENTUCKY

CITY           SKY/WX    TMP DP  RH WIND       PRES   REMARKS
LOUISVILLE/SDF CLOUDY    63  51  65 E3        29.97F
LOUISVILLE/LOU CLOUDY    62  52  69 CALM      29.98F
FORT KNOX      MOCLDY    58  54  86 CALM      29.96F
$$

KYZ035>037-039>044-047>052-055>060-089>105-230600-
NORTHEAST KENTUCKY

CITY           SKY/WX    TMP DP  RH WIND       PRES   REMARKS
LEXINGTON      CLOUDY    57  50  77 CALM      29.99F
COVINGTON      CLOUDY    58  46  64 CALM      29.99F
FRANKFORT      CLOUDY    56  51  84 CALM      29.97F
$$

KYZ054-064>069-076>088-106>120-230600-
SOUTHEAST KENTUCKY

CITY           SKY/WX    TMP DP  RH WIND       PRES   REMARKS
JACKSON        CLOUDY    58  50  75 VRB3      29.99F
LONDON         CLOUDY    59  51  75 N3        29.99S
SOMERSET       CLOUDY    57  50  77 CALM      29.98F
MIDDLESBORO    CLOUDY    58  57  94 CALM      29.99S
MONTICELLO     CLOUDY    59  57  93 NE10      29.99F
$$




USA.gov is the U.S. government's official web portal to all federal, state and local government web resources and services.